TimeEDT,TemperatureF,Dew PointF,Humidity,Sea Level PressureIn,VisibilityMPH,Wind Direction,Wind SpeedMPH,Gust SpeedMPH,PrecipitationIn,Events,Conditions,WindDirDegrees,DateUTC
12:53 AM,82.9,75.0,77,30.03,10.0,North,3.5,-,N/A,,Clear,350,2013-06-13 04:53:00
1:53 AM,82.9,75.0,77,30.01,10.0,NW,3.5,-,N/A,,Clear,320,2013-06-13 05:53:00
2:53 AM,82.0,77.0,85,30.00,10.0,South,6.9,-,N/A,,Mostly Cloudy,170,2013-06-13 06:53:00
3:09 AM,82.0,75.0,79,30.00,10.0,Calm,Calm,-,N/A,,Scattered Clouds,0,2013-06-13 07:09:00
3:53 AM,82.0,75.0,79,30.00,10.0,Calm,Calm,-,N/A,,Partly Cloudy,0,2013-06-13 07:53:00
4:53 AM,82.0,75.0,79,29.99,10.0,West,3.5,-,N/A,,Clear,280,2013-06-13 08:53:00
5:53 AM,82.0,75.9,82,29.98,10.0,NNW,3.5,-,N/A,,Partly Cloudy,330,2013-06-13 09:53:00
6:53 AM,81.0,75.9,85,30.01,10.0,Calm,Calm,-,N/A,,Clear,0,2013-06-13 10:53:00
7:53 AM,82.0,75.9,82,30.01,10.0,North,4.6,-,N/A,,Partly Cloudy,360,2013-06-13 11:53:00
8:35 AM,82.9,75.9,79,30.03,10.0,North,4.6,-,N/A,,Mostly Cloudy,360,2013-06-13 12:35:00
8:53 AM,82.9,75.0,77,30.04,10.0,North,8.1,-,N/A,,Mostly Cloudy,350,2013-06-13 12:53:00
9:51 AM,84.2,73.4,70,30.04,10.0,NW,5.8,-,N/A,,Mostly Cloudy,310,2013-06-13 13:51:00
9:53 AM,84.0,73.9,72,30.04,10.0,NW,3.5,-,N/A,,Scattered Clouds,310,2013-06-13 13:53:00
10:53 AM,84.9,73.0,67,30.04,10.0,WNW,5.8,-,N/A,,Scattered Clouds,300,2013-06-13 14:53:00
11:53 AM,87.1,73.0,63,30.03,10.0,NNW,6.9,-,N/A,,Scattered Clouds,340,2013-06-13 15:53:00
12:53 PM,87.1,73.0,63,30.03,10.0,Variable,4.6,-,N/A,,Mostly Cloudy,0,2013-06-13 16:53:00
1:53 PM,88.0,72.0,59,30.00,10.0,Variable,5.8,-,N/A,,Mostly Cloudy,0,2013-06-13 17:53:00
2:53 PM,88.0,72.0,59,29.97,10.0,North,8.1,-,N/A,,Scattered Clouds,360,2013-06-13 18:53:00
3:53 PM,89.1,72.0,57,29.96,10.0,WNW,9.2,-,N/A,,Clear,290,2013-06-13 19:53:00
4:53 PM,88.0,70.0,55,29.96,10.0,WNW,10.4,-,N/A,,Clear,290,2013-06-13 20:53:00
5:53 PM,88.0,71.1,57,29.94,10.0,WNW,6.9,-,N/A,,Clear,300,2013-06-13 21:53:00
6:53 PM,86.0,72.0,63,29.93,10.0,WNW,10.4,-,N/A,,Clear,290,2013-06-13 22:53:00
7:53 PM,84.9,73.0,67,29.91,10.0,WNW,12.7,16.1,N/A,,Clear,290,2013-06-13 23:53:00
8:53 PM,84.0,75.0,74,29.92,10.0,West,8.1,-,N/A,,Clear,270,2013-06-14 00:53:00
9:53 PM,82.9,73.9,74,29.92,10.0,WSW,8.1,-,N/A,,Clear,250,2013-06-14 01:53:00
10:53 PM,82.9,73.9,74,29.94,10.0,West,8.1,-,N/A,,Clear,260,2013-06-14 02:53:00
11:53 PM,82.0,75.0,79,29.94,10.0,WSW,5.8,-,N/A,,Clear,240,2013-06-14 03:53:00